OSLO / FORNEBU current weather conditions

sailwx.info

Wind from 240 at 27 knots

Air temperature 5.0° C
Visibility: greater than 5.4 NM
Dewpoint -2.0° C

Last reported at 2015-Apr-26 17:20 UTC.
Time now 2015-Apr-26 19:23 UTC

Location: N 59°54' E 010°38'.
View on Google Maps.

See reports from other nearby stations

  
Tides and Currents Weather Stations Pressure Air Temp Water Temp Dewpoint Dewpoint Depression Visibility Wind Speed Wind Dir Waves Ship Positions
date/time (UTC)wind fromknots sea level pressurealtimeterstation pressurevisibilityair tempwater tempwave heightnotes
2015-Apr-26 18:20 230 30 5.4 5.0
2015-Apr-26 17:50 240 30 5.4 6.0 Light rain showers.
2015-Apr-26 17:20 240 27 5.4 5.0
2015-Apr-26 16:50 240 27 5.4 5.0
2015-Apr-26 16:20 250 31 5.4 6.0
2015-Apr-26 15:50 250 30 5.4 5.0
2015-Apr-26 15:20 260 29 5.4 5.0
2015-Apr-26 14:50 250 32 5.4 4.0 Light rain showers.
2015-Apr-26 14:20 260 34 5.4 5.0
2015-Apr-26 13:50 260 31 gusting 41 5.4 5.0 Light rain showers.
2015-Apr-26 13:20 270 31 5.4 5.0 Light rain showers.
2015-Apr-26 12:50 260 37 5.4 5.0
2015-Apr-26 12:20 260 31 5.4 6.0
2015-Apr-26 11:50 260 32 5.4 6.0
2015-Apr-26 11:20 270 31 5.4 6.0
2015-Apr-26 10:50 270 33 5.4 6.0
2015-Apr-26 10:20 270 31 5.4 5.0
2015-Apr-26 09:50 260 33 5.4 5.0
2015-Apr-26 09:20 270 29 5.4 5.0
2015-Apr-26 08:50 270 29 5.4 5.0
2015-Apr-26 08:20 290 27 5.4 5.0
2015-Apr-26 07:50 290 30 5.4 5.0 Light rain showers.
2015-Apr-26 07:20 290 27 5.4 5.0 Light rain showers.
2015-Apr-26 06:50 290 22 5.4 4.0
2015-Apr-26 06:20 270 30 5.4 4.0 Light rain showers.
2015-Apr-26 05:50 280 20 5.4 5.0
2015-Apr-26 05:20 290 23 5.4 5.0
2015-Apr-26 04:50 290 22 5.4 5.0
2015-Apr-26 04:20 290 20 5.4 5.0 Light rain showers.
2015-Apr-26 03:50 280 16 5.4 5.0 Light rain showers.
2015-Apr-26 03:20 290 22 5.4 5.0
2015-Apr-26 02:50 290 17 5.4 5.0
2015-Apr-26 02:20 290 17 5.4 5.0
2015-Apr-26 01:50 290 16 5.4 5.0
2015-Apr-26 01:20 290 16 5.4 5.0
2015-Apr-26 00:50 290 17 5.4 5.0
2015-Apr-26 00:20 300 15 5.4 5.0
2015-Apr-25 23:50 300 17 5.4 5.0
2015-Apr-25 23:20 300 23 5.4 4.0 Light rain showers.
2015-Apr-25 22:50 290 24 5.4 4.0 Light rain showers.
2015-Apr-25 22:20 300 14 5.4 5.0
2015-Apr-25 21:50 320 13 5.4 4.0
2015-Apr-25 21:20 340 17 5.4 4.0
2015-Apr-25 20:50 310 20 5.4 4.0 Light rain.
2015-Apr-25 20:20 310 18 5.4 5.0
2015-Apr-25 19:50 310 17 5.4 5.0
2015-Apr-25 19:20 300 16 5.4 5.0
2015-Apr-25 18:50 310 14 5.4 5.0
2015-Apr-25 18:20 300 12 5.4 4.0 Light rain showers.
2015-Apr-25 17:50 330 14 5.4 4.0 Light rain showers.
2015-Apr-25 17:20 250 3 5.4 4.0
2015-Apr-25 16:50 050 4 5.4 4.0
2015-Apr-25 16:20 060 11 5.4 4.0
2015-Apr-25 15:50 050 11 5.4 4.0
2015-Apr-25 15:20 060 12 5.4 3.0
2015-Apr-25 14:50 040 15 5.4 3.0 Light rain.
2015-Apr-25 14:20 040 17 5.4 3.0 Light rain.
2015-Apr-25 13:50 050 17 5.4 4.0 Light rain.
2015-Apr-25 13:20 050 17 5.4 4.0
2015-Apr-25 12:50 050 18 5.4 5.0
2015-Apr-25 12:20 050 18 5.4 5.0 Light rain showers.
2015-Apr-25 11:50 050 17 5.4 5.0 Light rain showers.
2015-Apr-25 11:20 050 17 5.4 5.0
2015-Apr-25 10:50 060 17 5.4 7.0 Light rain showers.
2015-Apr-25 10:20 060 16 5.4 5.0
2015-Apr-25 09:50 060 14 5.4 5.0 Light rain.
2015-Apr-25 09:20 060 14 5.4 5.0
2015-Apr-25 08:50 060 16 5.4 5.0
2015-Apr-25 08:20 070 16 5.4 5.0
2015-Apr-25 07:50 070 15 5.4 5.0
2015-Apr-25 07:20 070 17 5.4 5.0
2015-Apr-25 06:50 080 16 5.4 5.0
2015-Apr-25 06:20 090 13 5.4 5.0
2015-Apr-25 05:50 110 10 5.4 5.0
2015-Apr-25 05:20 130 9 5.4 5.0
2015-Apr-25 04:50 130 7 5.4 5.0
2015-Apr-25 04:20 130 7 5.4 5.0
2015-Apr-25 03:50 110 2 5.4 4.0
2015-Apr-25 03:20 170 2 5.4 4.0
2015-Apr-25 02:50 220 5 5.4 4.0
2015-Apr-25 02:20 200 7 5.4 4.0
2015-Apr-25 01:50 5.4 4.0
2015-Apr-25 01:20 190 8 5.4 4.0
2015-Apr-25 00:50 5.4 4.0
2015-Apr-25 00:20 200 6 5.4 4.0
2015-Apr-24 23:50 210 7 5.4 4.0
2015-Apr-24 23:20 220 5 5.4 4.0
2015-Apr-24 22:50 5.4 4.0
2015-Apr-24 22:20 200 5 5.4 4.0
2015-Apr-24 21:50 230 6 5.4 4.0
2015-Apr-24 21:20 220 7 5.4 4.0
2015-Apr-24 20:50 230 7 5.4 4.0
2015-Apr-24 20:20 230 7 5.4 3.0
2015-Apr-24 19:50 240 4 5.4 3.0
2015-Apr-24 19:20 5.4 3.0